RH
50 50 52 56 60 62 62 62 63 64 65 65 66 69 73 76 77 78 81 83 87 91 96 99 101 102 102 103 104 103 102 101 101 97 88 74 61 52 48 47 46 47 48 46 45 43 41 39 35 29 23 17 12 10 8 8 8 9 10 11 14 17 22 26 28 34 36 39 47 53 54 51 51 53 52 51 51 51 51 51 51 51 49 48 48 49 49 49
51 52 55 59 63 65 65 66 68 70 71 72 74 78 81 83 85 87 91 95 98 101 103 103 103 104 103 101 100 101 103 100 90 74 59 48 45 46 47 48 48 47 44 43 41 38 33 27 19 14 10 8 8 8 8 9 10 12 15 18 22 26 33 38 40 47 50 50 54 56 56 54 54 53 51 51 50 50 52 52 50 49 49 49 49 51 53 53
53 54 57 62 65 68 69 71 74 76 77 79 81 85 90 93 97 99 101 102 102 102 102 102 101 101 100 101 104 102 92 74 56 45 42 44 48 50 49 47 45 43 41 37 31 24 17 11 9 8 8 9 9 10 11 13 16 20 24 28 34 39 45 49 51 55 57 55 55 54 53 53 53 53 52 52 54 55 55 54 52 51 52 52 52 53 56 58
53 55 59 63 66 69 71 73 74 76 79 83 87 92 98 102 105 104 102 102 101 102 102 101 101 103 105 103 94 74 53 41 39 43 47 50 50 48 46 43 40 36 30 22 15 10 8 8 8 8 10 11 13 15 18 22 29 34 38 42 48 53 55 56 57 56 56 56 55 53 52 53 54 55 55 55 60 63 59 56 55 55 56 56 55 54 55 57
54 57 60 62 65 68 70 72 74 78 84 90 94 100 105 105 105 103 101 102 103 104 104 106 106 102 91 73 53 38 35 42 47 49 49 48 46 44 40 35 29 21 14 9 8 7 8 9 11 13 16 19 23 27 32 39 44 49 53 54 57 58 58 57 57 57 57 58 58 56 55 56 58 58 57 56 60 62 60 58 57 57 57 57 56 55 54 55
57 59 60 61 64 68 71 74 79 85 91 96 101 106 109 108 105 103 103 104 105 104 100 95 84 66 49 38 35 39 45 49 48 46 46 44 40 35 27 20 13 9 8 8 9 10 13 16 21 26 30 34 40 44 49 52 54 56 58 59 60 59 59 58 58 59 59 60 60 59 57 58 60 60 58 56 56 57 58 59 59 58 58 57 58 58 57 57
59 61 61 63 67 71 75 79 84 89 94 99 103 105 108 108 105 103 102 99 92 82 69 55 43 35 35 39 44 46 47 46 44 43 39 33 26 18 12 9 8 9 10 12 16 20 24 30 36 42 45 48 52 55 56 57 57 59 59 60 61 60 60 59 59 59 59 59 58 57 56 56 59 61 60 58 58 59 61 62 63 63 62 62 61 61 60 58
58 60 61 64 68 72 77 81 87 92 97 98 98 98 98 98 95 90 82 71 58 46 37 33 34 38 42 45 45 44 43 41 37 31 24 16 11 8 8 10 11 14 17 22 27 31 36 42 47 51 53 55 56 57 57 58 58 58 59 59 59 59 58 58 59 60 60 61 61 60 60 61 64 67 67 67 66 66 66 66 65 64 63 61 60 58 57 55
56 59 62 66 72 78 83 88 93 94 92 88 84 81 77 73 66 57 47 38 33 32 34 38 41 43 43 42 41 39 34 27 20 14 10 8 9 10 13 15 18 22 27 31 36 41 46 50 53 55 57 57 57 57 57 58 59 59 61 62 63 64 64 65 67 69 70 70 70 70 69 69 69 70 69 69 67 66 64 63 61 60 59 57 56 55 53 52
53 56 60 64 69 72 74 74 72 68 63 59 55 51 46 42 37 32 30 31 34 37 39 41 41 40 38 36 31 24 18 12 9 8 9 11 14 16 19 23 26 31 36 41 46 50 53 55 57 58 60 61 62 63 64 66 68 70 72 73 74 75 74 75 74 74 73 72 70 69 68 66 65 64 64 63 62 61 60 59 58 57 56 55 54 53 53 52
33 35 37 39 41 40 39 38 36 35 34 33 32 30 29 29 29 31 33 35 38 39 39 37 35 31 26 20 15 10 8 8 9 11 14 18 21 25 28 32 36 42 47 51 55 57 60 62 64 67 69 71 73 74 75 76 76 76 76 75 74 73 72 70 69 68 67 67 65 64 64 63 63 62 62 61 60 60 59 57 57 56 55 54 54 53 53 53
20 21 22 22 23 23 24 24 25 25 26 26 26 27 29 31 33 34 36 36 36 34 32 27 21 16 12 9 7 8 9 11 14 17 21 25 30 35 39 44 49 54 57 60 64 66 69 71 73 75 77 77 77 77 76 74 73 71 70 69 68 68 68 67 66 66 67 67 66 65 65 64 64 64 63 62 61 60 59 58 57 55 55 54 53 53 53 53
17 18 18 19 20 21 22 23 23 24 26 27 28 30 31 33 33 33 32 30 27 23 18 13 10 8 7 8 9 11 13 16 21 25 31 37 43 48 52 58 61 65 68 70 73 75 76 77 77 77 76 75 74 73 72 71 70 70 70 69 69 69 69 69 68 68 68 68 68 67 67 66 64 63 62 61 60 59 57 56 55 54 54 53 53 53 52 51
14 15 16 17 19 20 22 24 25 27 28 29 29 30 29 28 26 24 21 18 14 11 8 7 7 8 8 10 13 17 23 29 35 41 47 53 57 61 64 68 71 73 75 77 78 77 77 76 74 73 72 72 72 72 72 72 72 72 72 72 71 71 70 69 68 67 66 65 64 63 63 62 61 59 58 58 57 55 55 54 53 52 52 51 50 48 47 46
15 16 18 19 21 23 24 25 26 26 26 25 24 22 20 18 15 13 10 9 7 7 7 7 8 10 13 19 24 31 39 45 51 56 61 64 67 70 72 75 76 77 77 77 76 75 75 74 73 73 74 74 74 73 73 72 72 71 71 70 69 68 67 65 64 63 62 61 60 59 58 57 56 55 53 52 51 50 49 48 46 44 42 41 39 37 35 34
16 17 19 20 21 21 22 21 20 19 17 15 13 12 10 9 8 7 7 6 7 7 8 12 16 21 28 35 40 46 52 57 62 66 69 71 73 75 77 77 77 76 76 76 75 76 76 75 75 74 74 73 72 71 70 69 68 68 67 65 64 63 62 61 59 58 57 54 53 51 49 47 46 44 42 40 38 37 35 33 31 30 28 27 26 25 24 24
15 16 16 16 16 15 14 12 11 9 8 7 7 7 6 6 6 6 7 7 9 12 17 24 30 37 43 49 53 59 63 66 70 73 75 77 77 78 77 77 76 76 76 76 76 75 75 74 73 72 70 69 68 67 66 65 64 63 62 60 58 56 54 51 49 46 44 42 40 38 36 34 33 31 31 30 28 27 26 26 26 27 28 28 27 27 27 27
11 11 10 9 9 8 7 6 6 6 6 6 6 6 6 6 7 9 12 16 20 26 33 38 44 50 56 59 63 67 69 72 75 75 77 78 78 78 77 77 76 75 74 74 73 72 71 70 69 68 66 65 64 62 60 58 56 53 51 48 45 43 41 39 38 37 38 39 38 37 36 34 34 33 34 34 33 32 31 31 30 30 30 29 28 27 26 25
7 6 6 6 6 5 5 6 6 5 5 5 6 7 8 10 14 19 24 29 34 40 46 52 56 61 65 67 70 73 74 75 76 76 77 78 78 78 77 76 74 73 72 71 70 69 67 65 63 61 59 57 54 51 48 45 42 39 38 36 36 38 39 40 41 42 44 45 43 41 39 37 36 34 33 31 29 27 26 25 23 22 21 20 19 18 17 17
5 5 5 5 5 5 5 5 5 6 7 9 12 16 20 24 29 35 40 43 48 53 58 62 66 70 72 73 75 76 77 77 77 77 77 76 76 75 74 73 71 69 68 66 63 61 58 56 53 49 46 42 40 38 36 36 37 38 40 41 43 44 44 43 42 41 39 36 34 32 29 27 26 23 22 21 20 20 18 18 17 17 17 16 15 15 15 15
5 5 5 5 6 6 7 8 11 14 17 21 26 31 36 40 44 50 55 57 58 62 65 68 71 73 74 74 75 76 76 76 75 74 73 72 72 70 68 66 64 61 58 55 52 48 45 41 38 37 36 37 38 40 42 44 45 46 45 43 41 38 35 33 31 28 26 26 25 25 24 23 23 21 21 20 20 21 21 20 19 19 19 18 18 17 17 17
6 6 7 8 10 12 16 19 23 27 31 34 38 43 48 52 55 60 64 65 65 67 70 71 72 73 73 74 75 74 74 73 72 71 69 67 64 61 58 55 52 48 45 41 38 36 35 36 40 43 45 47 48 48 47 45 41 38 35 32 30 28 28 28 27 26 25 25 25 25 24 24 23 21 20 19 19 19 19 18 18 18 17 17 16 16 16 16
9 11 13 17 20 24 27 30 33 36 40 44 48 54 57 60 64 66 67 70 71 71 72 72 72 73 73 73 73 72 71 69 66 63 59 55 52 48 45 41 38 35 34 34 36 40 44 48 51 51 49 46 43 39 36 32 30 29 28 28 28 28 28 28 27 27 26 25 24 24 24 25 25 23 19 16 14 14 14 14 13 13 12 12 12 12 12 12
18 21 24 27 30 32 35 37 41 46 50 55 58 62 65 67 69 69 70 72 72 72 73 73 72 72 71 69 68 64 61 57 53 49 46 42 39 36 33 32 34 37 41 46 49 51 51 49 45 41 37 34 32 31 30 30 30 30 29 28 29 28 28 28 28 31 31 31 29 28 31 33 35 35 31 25 21 19 16 13 12 12 12 12 12 11 11 11
27 30 33 35 38 41 44 49 53 57 60 62 65 67 70 71 71 71 71 72 72 72 72 70 68 65 62 59 55 50 47 43 40 37 34 33 32 34 39 43 47 50 52 51 48 44 39 36 33 31 32 32 33 32 31 31 30 30 30 31 33 33 34 35 36 38 40 39 37 35 37 39 40 41 38 33 30 26 21 17 16 16 16 15 15 14 13 12
36 39 42 45 49 51 55 58 60 61 63 66 68 70 71 71 72 73 73 72 70 69 66 62 58 53 49 45 41 38 35 33 32 32 34 38 42 48 52 53 51 47 43 38 35 33 32 33 33 33 33 33 32 30 29 30 31 34 38 40 41 41 42 41 41 41 41 41 38 36 36 36 37 38 36 35 33 30 26 25 24 23 22 20 19 18 16 15
46 49 52 54 56 57 59 60 61 63 66 68 69 71 71 72 72 72 70 66 63 59 55 49 45 40 37 34 32 31 31 33 38 43 47 51 52 51 48 43 38 34 32 32 32 33 33 33 32 31 31 31 32 33 35 37 39 42 43 43 43 42 42 41 40 39 38 38 37 35 34 33 35 36 34 33 32 31 30 30 29 27 25 23 22 20 19 18
55 56 58 59 59 60 61 62 64 66 68 69 70 71 71 69 67 63 58 54 49 44 40 37 33 31 30 29 31 35 41 47 52 52 51 48 43 38 34 32 31 30 31 32 31 31 30 31 32 34 36 38 40 41 42 42 42 42 41 40 39 39 38 37 36 36 36 36 35 34 33 32 34 35 34 33 32 31 31 30 28 27 25 24 23 22 20 19
58 59 60 61 62 65 66 67 68 69 69 69 68 67 63 58 53 49 44 40 36 33 30 29 28 29 33 39 46 51 52 51 48 43 38 35 32 30 30 30 30 30 30 31 31 31 32 35 39 42 44 45 44 43 42 40 39 38 37 36 35 35 34 34 34 34 34 36 36 35 34 34 34 34 33 32 30 29 28 27 25 24 24 23 22 21 20 18
61 62 63 64 67 68 69 69 68 67 65 63 59 54 49 45 41 37 34 31 29 28 28 29 34 41 49 54 54 50 44 39 34 31 30 29 28 27 27 26 26 26 27 30 35 38 40 43 44 45 44 42 41 39 38 37 36 35 34 34 34 33 33 33 34 34 35 37 37 35 33 32 30 29 28 26 26 25 24 23 22 22 21 21 20 19 18 17
66 66 67 69 69 68 66 64 61 58 54 49 44 41 38 35 32 29 27 26 27 31 36 42 49 53 53 49 43 36 31 28 26 25 24 24 24 25 27 30 34 37 39 41 43 45 45 44 43 42 40 39 38 37 36 36 35 34 33 33 32 32 32 32 32 32 33 33 32 29 27 27 26 24 23 22 21 21 20 19 19 19 19 19 18 17 16 15
68 68 67 66 64 61 57 52 49 45 40 37 35 33 30 28 26 25 26 31 37 44 49 51 50 45 39 34 30 27 24 23 23 25 27 31 36 40 44 48 50 51 50 49 47 45 43 41 40 38 37 37 37 38 38 37 36 35 33 32 31 29 29 28 27 27 27 27 27 26 23 23 22 21 21 19 19 19 18 18 17 18 17 16 16 14 14 13
65 62 59 57 53 49 45 41 38 35 33 32 29 26 25 25 26 31 37 45 50 51 47 43 38 32 29 26 24 23 23 25 29 33 38 42 47 50 52 52 52 50 47 46 44 42 40 39 39 39 39 38 37 37 36 34 34 32 31 29 28 26 25 24 23 22 21 21 24 25 24 24 22 20 21 21 20 19 18 17 17 16 15 14 12 11 11 11
57 53 50 47 43 39 36 34 32 30 29 26 24 24 26 30 37 44 49 51 48 42 37 32 28 26 24 23 23 25 28 31 35 40 43 46 47 48 48 48 47 46 44 43 41 40 39 38 38 38 38 37 36 35 34 33 32 31 30 29 27 25 24 22 21 20 19 19 23 25 27 29 25 20 21 21 19 18 17 17 17 15 13 11 10 9 9 9
49 46 42 38 35 33 31 30 28 26 23 23 25 29 35 42 47 49 47 42 37 32 29 26 24 23 23 24 26 29 32 35 38 42 44 45 46 46 45 45 44 43 42 41 41 41 40 39 37 36 35 35 34 34 34 34 32 30 29 27 25 24 22 22 22 23 21 21 24 25 27 30 26 20 21 20 17 17 16 16 15 13 11 9 8 8 9 8
42 38 35 33 32 30 27 26 24 22 25 30 34 38 44 48 47 43 37 33 29 26 25 24 24 25 26 28 30 32 35 38 40 42 43 43 43 42 42 42 42 42 42 42 42 42 42 41 39 38 36 35 36 37 35 32 30 28 27 25 24 24 24 25 26 25 23 21 22 23 25 27 25 20 20 19 16 15 14 14 14 11 10 8 8 9 9 8
35 33 33 31 28 26 25 23 23 28 36 41 42 43 46 44 38 34 30 27 25 24 24 24 25 27 29 31 33 36 38 40 41 41 40 40 39 40 41 41 42 42 41 41 41 41 43 43 42 42 42 41 40 39 35 33 31 28 27 25 25 26 28 30 28 24 22 20 19 23 27 29 24 20 18 17 15 15 14 14 13 10 9 7 8 9 8 8
34 32 30 27 25 24 23 25 32 42 46 45 44 44 41 36 31 28 26 24 24 24 25 27 28 30 32 34 36 38 39 39 39 39 39 39 40 41 42 41 41 40 40 40 40 40 43 46 48 45 42 40 37 37 39 38 35 32 33 35 36 36 35 35 34 30 26 23 20 20 29 32 26 19 18 16 14 13 12 12 11 8 7 7 8 8 7 6
31 28 26 24 24 24 28 38 48 49 45 43 42 39 34 30 28 26 25 24 25 26 28 29 30 33 35 37 37 37 38 38 39 40 40 41 41 40 40 39 39 39 39 39 39 38 39 45 50 47 40 39 41 44 47 44 38 37 41 47 51 51 46 43 45 44 37 31 23 17 24 33 28 20 18 16 13 12 11 11 10 7 7 8 8 7 5 4
27 25 24 24 27 34 44 53 51 44 42 41 37 32 29 27 25 24 25 26 28 29 30 32 35 37 37 37 36 37 39 41 42 42 40 40 39 38 37 36 37 36 35 35 35 36 38 42 50 51 47 48 51 49 46 44 41 42 48 55 59 57 50 43 44 45 38 32 26 19 22 32 31 21 18 17 14 13 13 11 10 7 7 8 7 6 5 4
25 25 27 32 41 50 54 50 43 41 40 36 31 28 27 25 24 26 27 29 31 31 33 36 37 37 37 39 40 41 43 43 42 40 37 36 35 35 35 35 35 35 34 35 36 38 42 46 51 54 51 53 59 59 59 59 54 54 58 59 55 50 44 37 33 34 34 33 33 27 25 32 32 24 22 21 17 15 14 12 9 7 8 8 6 5 4 3
25 29 36 46 53 54 49 43 41 40 35 31 29 27 25 24 26 29 31 32 33 35 37 38 38 40 43 46 46 45 43 41 39 37 36 35 35 36 37 38 38 38 37 38 40 43 48 51 55 60 59 59 63 67 71 68 56 52 57 59 56 52 51 48 39 33 35 38 38 30 25 33 36 29 26 24 17 15 14 12 9 8 8 6 5 4 3 3
30 41 50 54 52 48 43 41 39 36 32 30 27 24 24 27 30 32 33 34 37 38 40 41 44 48 49 48 46 43 40 38 37 37 37 37 38 40 42 42 40 40 41 43 47 50 52 53 56 60 60 66 77 81 82 77 67 62 66 66 64 66 68 62 49 42 41 43 43 31 23 29 33 28 25 22 16 14 13 11 9 7 6 5 4 4 3 3
45 54 55 51 47 44 42 39 36 33 30 27 24 25 28 30 33 35 37 39 40 42 46 50 52 52 48 45 43 40 39 38 38 39 39 40 41 43 44 44 43 45 49 52 55 58 59 59 58 56 51 55 68 74 73 72 73 76 78 76 76 81 82 70 58 51 43 42 49 42 28 26 26 22 21 18 14 12 10 9 7 5 6 5 4 4 3 3
56 56 52 48 46 43 40 37 35 31 27 25 26 30 31 32 35 38 40 43 46 50 55 55 52 48 45 43 41 40 40 40 39 39 40 41 42 44 45 47 49 53 56 58 60 64 65 63 62 63 57 56 67 71 62 58 67 82 92 92 90 92 87 73 60 50 37 36 46 43 30 23 20 17 17 14 11 9 7 6 6 5 5 4 3 3 3 3
57 52 50 49 45 41 38 36 33 29 26 28 31 32 33 36 38 40 45 51 55 58 56 52 48 46 46 44 44 43 42 41 40 40 40 40 41 44 48 50 53 56 57 60 64 67 67 63 66 73 74 79 92 90 70 65 81 99 103 93 87 90 85 68 54 44 36 34 36 33 27 20 15 13 13 11 9 7 6 5 4 4 4 3 3 3 3 3
54 52 52 48 43 40 38 35 31 28 29 31 34 35 36 38 40 46 55 60 59 55 51 49 49 50 50 49 48 47 44 42 41 39 38 39 42 45 49 50 52 54 58 62 65 66 64 64 73 85 89 94 103 95 78 79 94 103 96 82 81 90 83 62 48 41 37 33 28 23 20 16 12 11 11 10 8 6 5 5 3 3 3 2 3 3 3 3
55 54 51 46 42 40 36 32 30 30 33 35 36 37 38 41 48 56 61 58 53 51 51 53 54 53 53 52 50 48 46 44 42 40 40 41 43 46 48 50 52 54 58 60 61 62 62 66 78 92 97 102 108 102 86 83 92 96 89 78 81 88 79 59 47 40 34 31 26 19 16 14 12 11 11 11 9 7 5 4 3 3 3 3 3 3 3 3
57 54 48 43 41 39 34 31 32 35 37 37 37 38 42 49 56 58 55 51 52 55 56 57 56 54 52 51 49 48 47 46 44 43 43 43 45 47 48 49 50 51 53 54 56 59 62 71 83 92 100 105 108 100 81 76 88 94 84 76 79 84 82 68 49 35 29 26 23 19 15 14 12 10 12 13 10 7 5 3 3 3 3 3 3 3 3 3
57 51 45 42 41 37 32 32 35 38 37 37 39 44 50 54 54 51 51 53 57 60 59 57 55 52 49 49 49 48 48 47 46 46 47 48 49 49 50 50 50 52 53 55 62 67 70 79 89 92 98 104 100 91 80 78 88 90 79 75 74 73 79 75 49 29 24 21 17 17 14 11 11 10 10 12 11 8 5 3 3 3 3 3 3 3 3 3
53 47 44 42 39 34 32 35 38 37 37 40 45 50 52 51 48 49 54 58 59 59 57 53 50 48 47 48 49 49 50 50 49 50 49 48 48 48 49 52 54 57 63 69 79 84 83 89 95 89 90 100 99 91 84 79 84 85 73 65 61 57 70 77 52 27 25 20 13 13 12 8 9 8 7 10 12 9 5 3 3 3 2 3 3 3 3 3
50 46 43 41 37 33 35 38 37 37 41 47 50 50 48 47 49 52 56 57 57 56 54 50 47 47 47 48 47 48 49 49 48 48 48 47 48 49 50 55 61 67 74 82 90 92 87 90 95 87 87 101 101 88 80 78 81 75 56 49 53 48 53 69 55 26 20 22 15 11 11 8 8 8 7 8 10 9 5 3 2 2 2 2 3 3 3 3
Wind_Speed
38 37 36 36 37 37 38 38 39 39 40 41 41 42 43 44 45 46 46 47 49 50 52 54 56 57 59 60 62 63 64 65 66 67 67 67 65 63 61 60 59 58 58 59 60 61 63 64 64 64 63 60 57 53 49 46 42 39 36 33 31 29 27 26 26 25 25 25 24 25 26 27 26 26 28 30 30 30 33 35 37 39 38 38 39 40 42 44
37 36 36 36 38 38 39 39 40 41 41 42 43 44 45 47 47 48 49 50 52 54 56 57 59 60 62 63 64 65 66 67 67 66 65 62 60 59 59 58 58 59 60 61 62 63 64 63 60 57 53 49 46 42 39 36 33 30 28 27 25 24 23 23 23 23 24 25 25 25 26 27 28 30 31 32 33 34 37 40 40 41 40 40 41 43 45 47
37 36 36 37 38 39 40 40 41 42 42 44 45 46 47 48 49 50 51 53 55 57 58 60 61 62 63 64 65 66 66 66 64 62 59 57 57 57 57 58 59 60 62 63 63 61 58 54 50 46 42 39 36 34 31 28 26 24 23 22 22 21 21 22 23 23 25 27 27 27 28 29 30 33 34 35 37 40 42 42 42 43 43 44 44 45 48 50
37 36 37 38 39 40 41 41 41 42 43 45 47 48 49 50 51 52 53 55 57 58 60 61 62 63 64 64 65 65 63 60 58 56 56 56 56 57 58 59 61 62 61 60 56 52 47 43 40 37 34 31 29 26 24 22 21 20 20 21 20 21 21 23 24 25 27 29 31 32 31 32 33 36 37 38 41 46 45 44 45 46 48 49 49 49 50 52
37 37 38 39 40 40 41 41 42 43 45 47 48 49 50 51 53 54 56 58 59 59 60 61 62 63 63 63 61 59 56 54 54 54 55 56 57 58 59 60 60 58 54 50 45 41 38 34 31 29 26 24 23 21 20 19 18 19 20 21 21 22 23 25 26 28 30 32 34 35 35 36 38 40 41 41 44 48 48 47 49 50 51 52 53 54 54 55
37 38 39 40 40 41 42 42 43 45 46 48 50 51 52 53 55 56 58 59 59 60 60 61 61 61 59 57 55 53 52 53 54 54 55 57 58 59 58 56 52 47 43 38 35 32 29 26 23 21 20 20 19 19 19 19 19 20 21 22 24 26 27 28 29 31 34 36 38 39 38 39 42 45 46 46 47 49 50 52 53 55 55 56 57 57 58 58
38 39 40 40 41 41 42 43 45 46 48 50 52 53 54 56 57 58 59 60 60 59 59 58 57 55 53 52 51 51 51 52 54 55 57 57 56 54 49 44 39 35 32 29 26 24 22 20 19 18 19 19 19 19 20 21 22 22 23 25 27 29 31 32 33 35 37 40 42 42 41 42 46 50 51 51 52 52 54 55 57 58 59 59 60 61 61 62
38 39 40 40 41 42 43 45 47 49 51 53 54 55 56 57 58 59 58 58 57 55 54 52 51 50 49 49 50 51 52 54 55 55 54 51 47 42 36 32 29 26 23 22 20 19 18 18 18 19 20 21 21 22 23 24 25 26 27 29 30 32 34 35 37 39 42 44 46 46 45 46 49 53 54 56 57 57 58 59 61 61 62 63 64 65 65 66
38 39 40 41 42 43 45 47 49 51 53 54 54 55 56 56 56 55 54 52 51 50 49 48 48 48 48 49 51 52 53 53 51 48 43 38 34 29 26 24 22 21 19 19 18 18 19 19 20 21 22 23 24 25 26 27 29 30 31 33 35 36 37 39 40 43 45 48 50 51 49 50 53 56 58 59 61 62 63 64 65 66 67 67 68 68 69 69
37 38 39 41 43 45 46 48 49 50 51 51 51 51 51 51 50 49 48 47 47 46 46 46 47 48 49 50 51 50 48 44 39 34 30 26 24 22 21 20 19 19 18 18 19 19 20 21 22 24 25 26 28 29 30 31 32 33 35 37 39 41 41 42 44 46 49 52 54 55 54 55 57 59 61 63 64 66 68 69 70 70 71 72 72 73 73 74
34 36 37 39 41 42 43 44 44 45 45 46 46 46 45 45 45 45 45 44 44 45 45 46 47 48 48 47 44 40 35 30 26 23 21 20 19 18 18 18 18 18 19 20 21 22 23 24 25 27 28 30 31 33 34 35 37 37 38 40 42 45 46 46 48 51 53 56 58 59 59 60 62 64 66 67 69 71 72 74 75 75 76 77 77 77 78 78
31 32 34 35 36 37 38 39 39 40 41 41 41 42 42 42 42 42 42 43 43 44 45 45 45 43 40 36 31 27 24 21 19 18 17 17 16 17 17 18 19 19 20 22 23 24 26 27 28 30 31 33 35 36 38 39 41 42 44 45 46 48 51 52 53 55 57 60 62 64 65 66 67 69 71 72 74 75 77 79 80 80 81 81 82 82 82 83
29 31 32 33 34 34 35 36 37 37 38 38 39 39 40 40 40 41 42 42 43 43 42 40 36 32 28 24 22 19 18 17 16 15 15 16 16 17 18 19 20 21 22 24 25 27 29 30 32 33 35 37 38 40 42 44 45 47 49 50 51 53 55 57 58 59 60 63 66 67 69 71 72 73 75 77 78 80 81 83 84 85 85 86 86 86 87 87
28 29 30 31 32 33 33 34 35 35 36 36 37 38 38 39 39 40 40 39 38 36 32 29 26 22 20 18 16 15 14 14 14 14 15 16 17 18 19 20 22 23 25 26 28 30 32 34 36 37 39 41 42 44 46 48 49 51 53 54 56 58 59 61 62 64 65 67 70 71 72 75 76 78 80 81 83 85 86 88 89 89 90 90 90 91 92 92
27 28 29 30 30 31 32 32 33 33 34 35 36 36 37 36 36 35 33 31 28 25 22 20 18 16 14 12 11 11 12 13 14 15 16 17 18 20 22 23 25 26 28 30 32 34 36 38 40 41 43 45 47 48 50 51 53 55 57 58 60 62 64 66 67 69 70 72 74 76 77 79 81 83 84 86 88 90 91 92 93 93 94 94 94 95 96 96
26 27 28 28 29 30 30 31 31 32 33 33 32 32 31 30 28 26 24 22 20 17 14 12 10 9 9 9 10 11 12 14 15 17 18 19 21 23 25 27 28 30 32 34 35 37 39 41 43 45 46 48 50 52 54 56 58 60 61 63 65 66 68 70 72 74 75 77 79 81 82 83 84 86 88 89 91 92 93 94 95 95 95 96 96 97 97 98
25 26 27 27 28 28 28 28 28 28 27 26 25 24 22 21 19 18 16 14 12 9 7 6 7 8 9 10 12 13 14 15 17 19 20 22 24 26 28 30 32 34 36 37 39 41 43 44 46 48 50 52 54 56 58 60 62 64 66 68 70 71 72 73 76 78 80 81 82 84 84 85 86 87 88 90 91 92 94 95 95 96 97 97 97 98 99 99
24 24 24 24 24 23 23 22 22 21 19 18 17 15 14 13 11 9 7 6 4 4 5 7 8 9 11 12 13 15 16 18 19 22 23 25 27 30 32 34 35 37 39 41 43 45 46 48 51 52 54 56 58 60 62 64 66 67 69 70 73 74 75 75 76 77 80 82 84 85 86 87 88 88 89 90 91 92 94 95 96 97 97 97 97 97 98 98
19 18 18 17 16 16 16 15 14 13 12 10 8 7 5 4 2 2 3 4 5 6 7 9 9 11 12 14 16 18 19 21 23 25 27 29 31 33 35 37 39 41 43 45 47 49 51 53 55 57 58 60 62 64 65 67 68 69 70 71 71 74 75 76 76 77 78 81 84 86 88 88 88 88 89 89 90 91 93 94 94 94 95 94 94 94 94 95
12 11 10 10 9 9 8 6 5 4 2 0 2 3 4 4 5 5 6 6 7 7 8 10 11 12 14 17 19 21 22 24 27 29 31 33 34 37 39 41 43 45 47 49 51 53 54 56 58 59 61 62 63 65 66 67 68 69 70 71 71 73 75 77 77 77 78 79 81 84 86 87 87 86 85 86 87 88 90 91 91 91 91 91 91 91 91 92
7 6 5 4 3 3 3 4 6 7 7 8 9 8 8 7 7 7 7 7 7 8 10 11 13 15 18 19 21 23 26 28 30 32 34 36 39 41 43 45 47 49 51 53 54 56 57 58 60 60 61 62 63 64 65 66 67 69 70 71 72 72 73 76 77 76 76 77 78 80 83 85 86 84 83 84 85 86 88 89 89 89 89 89 89 89 90 91
7 8 8 9 10 11 12 12 12 12 11 10 10 9 8 7 6 6 7 8 9 11 13 14 16 18 20 23 25 27 30 32 34 36 38 40 43 45 47 48 50 52 53 54 55 56 57 58 59 60 61 62 63 64 65 66 67 68 68 69 70 70 70 72 75 75 75 75 76 77 80 83 85 84 83 82 82 83 85 87 87 87 87 87 87 87 88 88
15 15 16 16 17 16 16 15 14 12 11 10 9 8 6 6 6 7 8 11 12 14 16 18 20 22 24 26 29 32 34 36 38 40 42 44 46 48 49 50 51 53 53 54 55 55 56 57 59 60 61 63 63 64 64 65 65 65 66 67 68 68 68 68 71 74 75 76 76 77 80 84 88 88 87 85 83 84 85 86 86 85 86 86 86 86 86 86
20 20 20 19 18 17 15 14 13 11 10 8 7 6 6 6 7 9 11 13 15 17 20 22 24 27 29 31 33 35 37 40 41 43 45 46 47 49 50 50 51 52 52 53 54 55 56 58 59 59 60 61 61 61 62 62 63 64 65 66 67 69 70 70 71 74 77 79 80 81 82 85 89 92 94 95 94 94 92 90 89 90 90 91 90 90 89 89
22 21 19 18 16 15 14 13 11 10 8 7 6 6 7 9 11 13 15 17 19 22 24 26 29 31 33 34 36 38 40 42 43 45 46 47 47 48 49 50 51 52 53 54 55 56 56 56 57 57 57 57 57 58 59 60 61 64 66 68 69 71 73 75 76 76 78 81 84 84 83 83 86 90 96 98 100 101 100 98 98 99 100 100 99 98 98 97
20 19 17 16 14 13 12 11 9 8 7 7 7 9 10 12 14 17 19 21 24 26 28 30 32 34 35 37 39 40 41 42 43 44 45 46 47 48 49 50 52 53 53 54 53 53 54 54 54 53 54 55 56 57 59 61 63 65 68 70 72 73 74 76 77 79 80 82 85 87 86 85 84 88 94 96 98 100 102 104 105 106 107 107 107 107 106 106
18 16 15 14 13 11 10 9 8 7 8 9 10 12 14 16 19 21 23 25 27 29 31 33 34 36 37 39 40 41 41 42 43 44 45 46 47 49 50 51 51 51 51 50 50 50 50 51 52 53 54 56 59 61 63 65 66 67 69 70 72 73 75 77 78 79 80 82 86 88 90 88 85 88 93 94 96 99 100 102 104 106 109 110 111 111 111 111
16 14 13 11 10 9 9 9 8 9 11 12 14 16 18 21 23 25 26 28 29 31 32 34 35 37 38 39 39 40 41 41 43 44 46 47 48 49 49 49 48 47 47 47 48 48 50 52 55 57 59 61 62 63 65 66 67 68 70 71 73 74 75 77 79 79 80 81 85 89 91 90 85 86 91 94 96 98 99 101 103 105 107 109 110 111 112 113
13 12 11 10 10 9 9 10 11 12 14 16 18 20 22 24 26 27 29 30 31 32 34 35 36 37 37 38 39 40 41 43 44 46 47 47 47 46 45 44 44 44 45 47 49 51 54 57 59 61 62 63 64 65 66 67 68 70 71 72 74 75 77 78 79 80 80 80 82 86 88 88 85 85 90 95 97 98 99 101 102 103 105 106 107 109 110 111
11 10 10 10 10 10 11 13 14 16 18 19 21 23 24 26 27 29 30 32 33 34 35 35 35 36 37 38 39 40 42 43 44 43 42 42 41 42 42 43 45 46 48 51 54 56 59 60 61 62 63 65 67 68 69 70 71 72 73 73 74 75 76 77 78 79 77 75 78 83 86 88 90 90 93 96 97 98 98 99 100 101 102 103 104 105 107 108
10 10 10 10 11 12 14 16 17 19 20 21 23 24 26 27 28 30 31 32 33 34 34 34 35 36 37 39 40 41 41 41 40 39 39 39 41 43 46 48 51 54 55 57 58 59 60 61 62 63 64 65 67 69 70 71 72 73 74 75 74 74 74 74 77 78 77 76 79 85 87 89 92 94 95 96 96 97 97 97 98 98 99 100 101 102 103 104
9 10 11 12 13 15 16 18 19 21 22 23 25 26 27 29 30 31 31 32 33 33 34 35 36 38 39 40 40 39 38 38 37 38 40 42 45 47 49 50 51 53 54 56 58 59 61 62 63 64 64 65 65 66 68 69 71 72 74 76 77 77 76 75 76 78 77 75 77 82 83 84 88 92 94 95 94 95 95 95 95 95 96 97 98 99 99 100
10 11 13 14 16 17 18 20 21 23 25 26 27 28 29 30 31 31 31 32 33 34 36 37 39 39 39 38 37 36 36 36 38 40 42 44 45 46 47 48 50 51 53 56 58 60 61 62 63 63 63 64 64 65 67 68 71 73 74 76 78 80 80 78 78 78 75 71 71 75 76 77 81 86 89 90 90 91 92 92 92 93 94 95 96 95 94 94
13 14 16 17 18 19 21 22 24 25 26 27 28 29 30 30 30 31 32 34 35 37 38 39 39 38 36 35 35 35 36 38 39 41 43 44 45 47 48 50 51 53 55 57 59 60 60 60 61 62 63 64 65 67 68 70 71 72 74 76 78 81 82 81 81 82 81 75 71 72 73 74 78 83 86 87 88 89 89 89 91 92 93 93 92 90 89 90
15 17 18 19 21 22 23 25 26 27 28 29 30 29 29 30 31 33 35 36 38 38 38 37 36 35 34 35 35 36 38 39 41 42 43 45 46 48 49 51 52 53 55 57 59 60 61 62 62 63 64 65 67 68 70 71 72 73 74 76 77 78 81 81 82 83 85 82 77 74 74 76 81 84 86 87 88 89 89 89 91 92 92 91 89 88 89 90
17 18 20 22 23 24 25 26 27 28 30 30 28 28 30 32 34 36 37 38 38 37 36 34 34 34 34 35 36 38 39 41 42 43 44 45 47 49 50 51 52 53 54 56 58 60 63 64 64 65 65 66 68 70 71 72 73 73 74 75 75 77 79 81 82 83 84 83 80 77 75 78 84 86 86 88 90 89 90 90 91 93 93 91 89 91 92 92
19 21 22 24 24 25 26 28 29 29 28 28 29 31 34 35 36 37 37 36 35 34 33 32 33 33 35 36 38 39 41 42 43 44 46 47 49 50 51 52 53 53 55 56 58 60 63 65 66 66 66 67 69 70 72 73 74 74 74 75 76 76 78 81 83 85 86 85 82 78 77 80 86 89 89 91 92 91 91 91 93 93 93 91 91 93 93 91
22 23 24 25 26 27 28 29 29 28 28 30 33 36 36 37 37 37 35 34 33 32 32 32 33 35 36 38 39 41 42 43 45 46 48 50 51 51 52 53 54 55 56 58 59 60 62 65 67 67 67 68 69 70 72 73 74 75 76 77 79 80 79 80 84 87 88 89 86 81 79 82 88 90 91 93 93 92 92 93 95 94 93 92 93 92 90 87
24 24 25 26 28 28 29 28 28 28 31 35 36 36 36 36 35 34 32 31 31 31 32 34 35 37 38 39 40 42 43 45 47 49 50 51 52 53 53 54 55 56 57 58 59 60 61 63 67 69 69 69 69 70 71 72 72 73 75 77 79 81 81 80 83 87 90 92 90 85 80 84 90 91 92 94 94 94 96 98 99 97 95 95 94 91 88 84
25 25 27 28 28 28 28 28 29 32 35 37 37 37 36 35 33 31 31 30 31 32 34 36 38 40 41 42 43 44 46 48 49 51 51 52 53 54 55 56 57 58 59 59 60 61 62 63 65 67 68 68 69 70 71 72 72 72 74 75 76 78 80 79 79 83 87 90 91 88 84 86 92 94 95 97 97 97 100 102 103 100 97 95 93 90 87 83
26 27 28 28 27 27 28 30 33 36 37 37 37 36 34 33 32 30 30 30 32 34 37 39 41 42 44 45 47 48 49 51 52 53 53 54 55 56 57 58 59 60 60 60 61 61 62 63 63 64 65 67 69 71 72 73 74 73 74 75 76 77 78 79 77 77 81 86 88 89 87 89 94 96 97 99 99 99 102 105 105 101 97 93 90 87 84 81
27 27 27 26 26 28 31 34 37 38 38 37 36 34 33 32 30 30 30 32 34 37 40 42 43 45 47 48 50 52 52 53 54 55 55 56 57 58 59 59 60 60 60 60 60 60 60 61 61 63 64 67 69 71 71 72 72 71 72 74 75 76 78 80 80 78 80 84 87 88 86 89 96 99 99 100 99 99 102 106 106 101 94 89 86 84 81 79
27 26 26 27 29 32 35 37 38 38 37 36 34 33 32 31 30 31 32 34 37 40 42 44 45 48 50 51 53 53 54 54 55 56 57 58 58 58 59 59 58 58 59 59 59 59 59 60 61 61 61 62 66 68 68 69 69 68 69 72 75 78 81 83 84 85 85 87 91 91 87 88 94 97 98 99 99 98 100 103 103 97 89 85 83 81 79 75
25 25 28 30 33 36 38 39 38 37 36 35 33 33 32 31 32 33 35 37 39 41 43 46 48 50 51 52 53 53 54 55 56 57 58 58 58 57 57 57 57 57 57 57 58 59 60 62 64 64 61 60 62 64 65 66 68 70 73 76 79 83 86 87 88 89 87 88 94 98 93 88 90 94 96 97 97 96 97 99 98 92 87 83 79 76 73 70
25 27 31 34 36 38 39 39 38 36 35 34 33 32 32 32 33 35 36 38 40 43 45 48 50 51 52 52 53 55 56 57 58 58 58 58 57 57 56 56 56 56 56 57 58 60 61 62 65 69 69 68 69 71 70 70 72 77 81 83 84 87 89 90 91 91 89 87 91 98 96 91 89 91 93 94 94 94 95 95 91 86 83 82 78 73 69 66
28 30 34 37 38 39 39 38 37 35 34 33 33 33 33 34 35 36 38 40 42 44 47 48 49 51 52 54 56 57 58 58 58 58 58 57 56 56 55 55 55 55 55 56 57 59 60 62 65 70 73 74 76 78 77 77 79 82 84 85 86 89 92 92 92 93 92 89 89 93 97 95 92 91 93 93 92 91 94 93 86 79 78 77 74 72 68 65
31 34 36 38 39 39 38 37 36 34 34 33 33 33 34 35 36 37 39 41 43 45 46 48 49 51 53 55 57 57 58 58 58 57 56 56 55 54 54 54 54 54 55 56 57 58 60 62 65 70 73 75 76 78 78 79 81 82 84 85 87 91 93 92 93 94 94 93 90 89 94 96 94 93 93 93 91 90 92 89 81 77 77 76 74 72 69 66
33 36 38 39 39 38 37 35 34 33 33 33 34 34 35 36 37 38 39 41 43 45 46 47 48 50 52 54 54 56 57 57 57 56 55 54 54 53 53 53 54 54 55 56 58 60 62 64 66 69 72 74 76 78 78 78 80 83 85 86 89 92 93 92 94 94 93 94 94 92 93 96 96 94 94 92 89 89 91 88 81 79 78 75 73 71 68 66
35 37 38 39 38 36 35 34 33 33 33 33 34 35 35 36 37 38 39 41 43 44 45 47 48 50 51 51 52 53 55 55 56 55 55 55 54 54 55 55 55 56 58 59 62 64 66 67 68 69 72 74 76 78 78 78 81 84 85 86 89 93 95 95 95 93 90 92 95 95 94 94 95 94 93 91 88 89 92 89 83 80 76 72 70 68 65 63
36 38 39 39 36 34 33 33 32 32 33 33 34 35 36 36 37 38 40 41 42 43 45 47 49 50 50 50 51 53 54 55 55 55 55 55 56 57 58 59 60 62 64 66 68 69 70 70 71 71 72 75 77 79 80 81 83 85 85 86 88 91 95 97 95 93 91 90 91 93 93 92 92 91 90 90 89 89 91 89 82 77 72 68 66 64 61 59
37 39 39 36 33 32 32 32 32 32 33 34 34 35 35 36 37 38 40 40 42 44 46 48 50 50 51 51 52 54 55 57 57 57 56 57 59 61 63 65 67 69 71 72 73 73 73 73 73 72 74 77 80 81 82 82 83 85 84 84 86 87 92 98 98 95 96 95 92 92 93 92 91 90 87 85 84 85 87 85 80 76 71 67 66 63 60 58
38 39 37 33 31 31 31 31 31 32 33 34 34 35 36 37 37 38 39 41 43 46 48 49 51 52 53 54 55 57 58 59 59 60 60 62 64 66 68 71 73 75 75 76 76 76 76 76 77 77 78 80 81 82 83 84 84 84 83 83 86 86 88 96 99 95 96 100 98 96 96 94 91 89 84 80 78 79 83 84 82 79 74 70 67 65 61 58
Wind_Direction
231 234 237 241 244 247 250 253 256 259 261 264 266 268 270 273 274 276 278 280 281 282 283 284 285 286 287 288 290 291 292 292 292 293 293 293 293 293 293 293 292 292 292 292 292 292 292 292 292 291 291 290 289 288 287 286 285 283 282 281 280 279 278 278 279 279 279 278 277 277 277 279 279 276 275 276 276 276 275 272 270 269 270 271 272 272 273 273
233 236 239 243 246 249 252 254 257 260 262 265 268 270 272 274 276 278 280 281 282 283 284 285 285 286 287 288 289 290 290 291 291 292 292 292 292 292 292 292 292 292 292 292 292 292 292 292 292 291 290 289 288 286 285 284 283 282 281 280 280 281 282 282 284 284 283 282 280 279 278 279 280 279 278 278 278 276 274 272 271 272 272 272 273 274 274 273
235 238 242 244 247 250 253 255 258 261 264 267 269 271 273 275 277 279 280 282 283 283 284 285 285 286 287 288 288 289 290 291 291 291 291 292 292 292 291 291 291 292 292 292 293 293 292 292 291 290 289 287 286 285 285 285 284 285 285 286 287 289 290 289 288 287 285 284 282 279 278 278 278 278 278 279 278 275 273 273 275 276 276 275 273 273 274 274
237 240 243 246 248 251 254 257 260 263 266 268 270 272 274 276 277 279 281 282 282 283 284 284 285 286 287 287 288 289 290 290 290 290 291 291 291 291 291 291 292 292 293 293 293 293 292 291 290 289 288 287 286 287 288 290 291 293 294 295 295 294 292 290 289 287 285 284 283 282 281 280 278 277 277 277 277 276 275 277 278 277 277 276 275 273 273 274
239 242 245 248 250 253 256 260 262 265 267 269 271 272 274 276 278 279 280 281 282 283 283 284 285 286 286 287 288 288 289 289 289 290 290 290 290 290 291 292 292 293 293 293 293 293 292 291 290 290 290 290 292 294 297 299 300 300 299 298 296 293 290 288 287 286 285 284 283 282 283 283 282 280 278 276 276 277 279 279 278 277 276 276 276 276 275 274
241 244 247 250 253 256 258 261 264 266 268 269 271 273 275 277 278 279 280 280 281 282 283 284 284 285 286 286 287 287 288 289 289 289 290 290 291 291 292 293 293 293 294 294 294 294 293 292 293 295 297 299 302 303 304 303 302 299 297 296 294 291 289 287 286 285 284 283 282 281 282 283 283 282 280 278 278 278 280 279 278 278 278 278 277 277 277 276
243 246 249 252 255 257 260 263 265 267 268 270 272 274 275 276 277 277 279 280 281 281 282 282 283 283 284 285 285 287 287 288 288 289 290 291 292 292 293 293 294 294 295 295 296 296 296 298 301 304 305 305 306 304 302 300 299 296 294 292 289 288 288 287 287 285 284 283 282 282 284 284 283 282 282 282 281 280 280 279 279 279 279 279 279 279 279 279
245 248 251 254 257 260 262 264 266 268 269 270 272 273 274 274 275 276 277 278 279 279 280 280 281 282 283 284 286 286 287 288 289 290 291 292 292 293 293 294 294 295 295 296 298 300 302 305 307 307 306 304 302 300 298 296 295 293 292 290 288 287 287 288 287 287 286 285 285 285 286 285 283 283 284 284 283 283 282 281 281 280 280 280 280 280 280 280
248 251 254 257 260 262 264 265 266 267 268 270 271 272 272 273 274 275 276 276 277 278 279 280 281 282 283 285 286 287 288 290 291 291 292 292 293 293 293 293 294 296 298 301 304 306 307 307 306 304 302 300 298 297 296 296 296 295 294 293 291 291 291 290 289 288 288 287 287 287 287 285 284 284 284 284 284 284 284 283 283 282 282 282 282 282 282 282
251 254 256 259 260 262 263 263 264 266 267 268 269 270 270 271 272 273 274 275 276 277 279 280 282 283 285 287 288 290 291 291 292 292 292 293 293 293 294 296 300 303 307 308 309 308 307 305 303 302 302 300 300 300 299 298 297 296 295 295 294 293 292 291 290 290 289 288 288 288 288 287 286 286 285 285 285 285 284 284 284 284 283 283 283 283 283 283
250 253 255 256 257 258 259 261 262 263 264 265 266 267 268 269 270 272 273 274 276 278 280 282 284 286 288 289 290 291 291 290 291 291 292 293 294 297 302 306 309 312 312 311 309 308 306 305 304 303 302 301 301 300 299 299 297 296 295 294 294 294 293 292 292 291 291 290 290 289 289 288 287 287 287 286 286 285 285 285 284 284 284 283 283 283 283 283
246 248 249 251 253 255 257 258 259 261 262 263 264 266 267 269 270 272 274 276 278 281 283 285 287 289 289 289 289 288 288 289 290 292 295 299 304 309 313 314 315 314 312 310 308 306 305 304 303 302 301 301 301 300 300 299 299 298 297 296 295 295 294 294 293 292 291 290 290 290 289 288 287 287 286 285 285 284 284 284 283 283 283 284 284 283 283 283
242 244 246 249 251 253 254 256 257 259 260 262 264 265 267 269 271 274 276 279 282 284 286 288 288 288 287 284 284 286 289 293 298 304 309 314 316 317 317 315 312 310 308 307 305 304 303 302 302 302 302 302 301 301 301 301 300 299 299 297 296 294 293 292 291 289 288 287 287 287 287 286 286 285 285 284 284 283 283 283 283 283 283 283 283 283 282 282
241 244 246 248 250 252 253 255 256 258 260 262 264 267 269 272 275 278 281 283 285 286 286 285 284 282 282 284 289 296 303 310 316 320 321 320 317 314 312 309 307 306 305 304 304 303 303 303 304 304 304 303 302 301 300 300 299 297 296 294 293 292 290 289 289 288 287 286 285 285 285 285 285 284 284 283 283 283 282 282 282 282 282 282 282 281 281 280
242 244 246 248 249 251 253 255 257 260 263 265 268 271 274 277 280 282 283 284 283 282 281 282 283 286 293 300 307 316 322 325 324 322 317 314 310 309 307 306 305 305 305 305 305 305 305 305 305 304 303 302 300 299 298 296 295 294 292 291 290 290 290 289 288 288 288 287 286 286 285 285 284 284 284 283 283 283 282 282 282 283 282 282 282 281 280 279
243 244 246 248 250 253 256 258 261 264 267 270 273 275 278 280 281 282 281 281 280 280 283 288 296 308 318 326 328 329 328 325 320 315 310 309 308 307 307 307 307 306 306 306 305 305 304 303 302 301 299 298 297 296 295 294 293 292 291 290 290 289 290 289 289 288 287 286 286 285 285 285 284 284 284 284 283 283 284 284 284 283 283 283 282 281 281 280
244 246 249 251 254 257 260 262 265 267 269 272 274 276 277 279 280 281 282 284 287 292 303 317 328 336 339 336 333 328 323 318 314 311 309 309 309 309 308 307 307 306 306 304 303 301 300 299 298 297 296 295 295 294 293 293 292 292 292 292 291 290 290 290 290 290 289 289 288 287 286 286 285 284 284 285 285 285 285 285 284 284 283 283 282 282 282 282
248 250 253 255 257 259 261 262 264 265 267 269 271 273 276 279 282 286 294 304 317 339 351 350 346 343 337 329 323 320 318 316 314 312 310 309 308 308 306 305 305 303 302 301 300 299 298 297 296 295 295 295 294 294 293 292 292 292 292 293 293 293 292 292 291 291 291 291 290 289 288 288 287 286 286 286 286 286 286 285 285 284 284 284 284 284 284 284
249 251 252 254 254 255 256 257 260 262 264 266 271 276 284 296 315 351 10 15 11 6 359 351 341 334 326 320 319 318 317 315 313 312 310 308 306 305 303 302 301 300 299 298 298 297 297 297 296 296 296 296 295 295 294 294 294 294 293 293 293 293 293 292 291 290 290 290 290 290 289 289 288 288 288 288 288 287 287 286 285 285 285 285 285 285 285 284
237 238 239 240 243 246 249 253 257 261 266 259 83 76 69 65 56 43 28 16 7 357 348 340 332 326 321 319 319 317 314 312 310 309 307 305 303 302 301 300 300 299 298 298 298 298 298 298 297 297 297 297 296 296 295 295 295 294 294 294 293 293 293 292 291 291 291 291 291 291 291 291 290 290 290 289 289 289 288 287 287 287 287 287 287 287 286 285
205 203 199 192 177 152 127 113 105 100 97 94 90 83 72 60 47 32 14 358 350 343 337 333 328 324 320 317 315 312 310 307 306 304 303 302 302 301 301 301 300 300 300 300 300 300 300 300 299 299 298 297 297 296 296 296 296 296 295 295 295 295 295 295 294 294 294 294 294 293 293 292 292 291 291 290 290 289 288 288 288 288 288 288 288 288 287 287
139 131 124 119 114 111 107 104 101 97 93 87 82 74 62 47 30 14 354 342 339 337 332 327 323 319 316 314 311 310 308 306 305 304 304 303 303 303 302 302 302 302 302 302 301 301 301 301 300 299 298 298 297 297 297 297 298 298 298 298 298 298 297 297 297 297 297 296 295 295 294 294 293 292 291 289 288 287 287 287 287 287 286 286 285 285 285 284
116 115 113 111 108 105 102 100 96 91 85 77 70 61 47 27 7 352 342 336 333 330 325 321 319 316 314 312 310 308 307 306 306 305 305 305 305 305 304 304 303 303 303 303 302 302 302 301 300 300 300 300 300 301 301 301 301 301 300 300 299 298 298 297 298 299 300 299 299 299 300 300 300 299 297 295 293 292 292 292 292 291 290 289 289 288 287 286
110 108 106 104 102 100 98 94 88 81 73 64 53 40 21 1 346 338 334 329 325 323 320 318 316 313 311 310 309 308 307 307 307 307 307 307 306 306 305 305 305 304 304 304 303 303 302 302 302 302 303 304 304 305 305 304 304 302 302 301 301 302 302 303 303 304 304 304 303 303 303 303 303 302 301 301 301 300 300 300 299 299 298 297 297 296 295 294
104 103 102 100 99 95 90 84 77 69 58 45 29 8 352 342 335 330 327 324 322 320 316 314 313 312 311 310 309 309 309 310 309 309 308 308 307 307 307 306 306 305 304 304 304 304 304 305 305 306 307 306 306 305 304 304 305 305 306 307 307 307 307 307 306 305 303 302 302 302 301 300 299 298 299 300 301 302 303 303 303 303 302 302 301 301 300 299
101 101 99 96 91 85 80 74 65 53 36 18 1 347 338 333 329 326 324 322 319 317 315 314 313 313 312 312 312 313 312 311 310 310 310 309 309 308 307 306 306 306 306 307 308 308 309 309 308 308 307 306 306 306 307 309 310 311 310 309 308 306 305 304 303 302 301 299 299 299 298 297 296 295 296 297 298 299 301 301 302 302 302 302 301 301 300 299
98 95 91 85 79 73 67 56 43 27 10 355 345 336 332 329 326 323 320 318 317 315 315 315 314 314 315 315 315 314 313 313 312 312 311 310 309 308 308 308 309 310 311 311 311 311 310 309 309 309 310 311 312 313 314 313 312 309 307 305 303 302 301 300 299 298 298 297 297 297 297 296 296 295 295 295 296 297 298 298 298 298 299 299 299 299 298 298
91 87 81 75 66 56 44 30 15 1 351 343 336 331 328 326 323 321 319 317 316 316 316 316 317 317 317 316 316 315 315 314 313 312 311 311 311 312 312 313 314 314 314 314 313 312 312 314 315 316 317 316 315 313 311 309 306 304 302 301 299 299 298 297 297 297 297 297 296 296 296 296 296 296 295 295 295 296 296 295 295 295 295 295 295 295 295 295
83 77 69 59 46 33 19 6 355 347 341 335 332 328 325 324 322 321 320 319 319 320 320 320 320 319 319 318 318 317 316 315 314 314 315 316 316 316 316 315 315 315 316 317 318 318 320 320 320 318 316 313 310 308 306 304 302 301 300 299 298 298 298 298 297 297 297 297 297 296 296 296 295 294 293 293 293 293 293 293 293 293 293 293 292 293 293 293
69 60 49 37 23 9 358 350 343 338 335 331 328 326 325 324 323 322 322 323 323 323 323 322 321 321 320 320 318 316 316 317 318 319 319 318 317 317 317 317 319 320 322 323 324 324 322 320 317 314 311 308 307 306 304 303 302 300 299 299 298 298 298 298 298 298 298 298 296 295 295 294 293 292 291 290 291 291 291 291 291 291 291 291 291 291 291 292
51 38 26 14 2 353 346 340 336 334 331 329 328 327 326 326 326 326 326 326 325 325 324 323 322 321 319 318 317 318 319 320 321 320 319 319 320 323 325 327 328 328 326 325 323 320 317 314 311 309 308 307 307 306 305 304 303 302 301 299 298 297 297 296 296 295 295 295 294 292 292 293 293 293 292 291 291 291 292 292 292 292 291 291 291 291 291 292
29 17 5 356 349 343 339 336 334 332 331 331 331 330 329 329 330 330 329 328 326 326 325 323 321 320 320 321 322 323 324 324 326 327 330 332 332 332 331 329 326 324 321 318 316 314 312 311 310 309 309 308 308 307 306 305 303 302 301 299 297 295 294 292 291 290 290 292 294 293 293 294 294 294 294 294 294 294 294 295 294 293 292 292 292 293 293 293
9 360 352 348 344 340 338 336 335 334 335 334 333 332 333 334 333 331 330 329 327 325 324 323 323 324 326 327 328 329 331 333 336 338 338 337 334 330 327 323 320 318 315 314 313 312 312 312 311 311 310 308 306 305 303 302 301 300 300 299 299 298 297 296 295 293 292 293 295 297 297 297 296 295 295 295 295 295 295 295 295 294 294 294 295 295 295 295
356 351 348 344 342 341 340 338 338 338 336 335 336 337 336 334 333 332 331 328 326 326 326 327 329 330 331 333 335 338 340 340 341 339 336 333 329 326 324 321 319 317 316 315 314 313 312 311 310 309 309 308 306 306 305 304 304 305 305 306 306 306 306 306 306 304 303 303 304 305 305 304 301 298 297 297 297 298 298 298 298 297 297 298 298 299 299 299
350 348 345 344 344 342 341 340 340 338 338 340 339 336 334 334 335 333 330 329 329 330 332 333 335 336 338 341 342 343 343 342 340 337 333 330 326 324 322 320 319 318 317 317 316 316 314 313 311 310 309 309 309 310 310 310 310 310 311 311 312 311 312 312 313 312 310 310 311 311 312 310 306 303 302 302 302 302 302 302 302 301 301 302 304 305 306 305
348 347 346 346 344 342 342 342 341 342 343 341 335 334 337 338 335 333 332 333 334 336 337 340 342 343 345 346 345 345 343 341 337 334 330 328 325 323 322 321 320 319 319 319 318 318 317 316 315 314 314 314 314 314 313 313 313 314 314 315 315 316 316 316 316 314 312 311 312 314 315 313 309 306 306 306 305 306 306 306 306 307 307 309 311 312 311 310
349 348 347 345 344 345 345 344 345 345 341 335 336 341 341 338 335 335 337 338 340 342 344 346 348 348 348 347 346 344 341 338 335 332 329 328 326 325 324 323 322 321 320 320 319 319 319 318 318 319 319 319 319 319 318 318 318 319 320 320 319 320 320 319 316 314 313 313 314 318 320 317 312 310 310 309 309 310 311 311 311 311 312 313 315 314 312 310
350 348 346 345 347 348 347 347 347 343 337 339 344 344 340 338 339 340 342 344 346 348 349 350 350 350 349 348 345 342 339 336 333 332 330 329 327 326 325 324 323 322 322 321 321 320 321 322 322 322 323 323 323 323 323 323 324 325 326 326 325 324 322 321 320 319 318 318 318 320 323 321 314 312 313 312 313 314 315 314 313 313 315 316 316 314 312 309
349 347 347 349 350 349 349 349 344 339 341 347 346 341 340 342 344 345 347 350 352 353 353 353 352 351 349 346 344 340 338 336 334 333 331 330 328 327 326 325 324 324 324 323 323 323 324 326 327 327 326 326 326 326 327 327 327 329 330 329 328 326 326 326 327 326 324 322 320 319 322 322 317 316 316 316 317 319 318 317 316 316 318 318 317 315 312 311
349 349 350 351 350 350 350 345 340 343 348 347 342 342 345 347 349 351 353 355 356 356 355 354 352 350 348 346 343 340 338 337 335 333 332 330 329 328 328 328 327 327 327 327 327 328 328 330 330 330 329 330 329 328 329 329 330 332 331 331 330 329 328 328 328 328 324 322 321 321 323 325 321 319 320 320 321 322 320 318 316 317 319 320 319 316 314 313
351 352 352 352 350 349 346 343 345 350 348 344 344 347 350 352 354 356 358 358 359 357 356 354 352 350 348 345 343 341 340 338 336 334 333 333 332 332 331 331 331 331 330 330 331 332 332 332 332 332 332 332 331 332 334 334 335 336 335 333 331 330 328 326 324 325 324 324 326 325 326 328 325 323 323 323 323 322 320 317 316 318 321 321 318 316 315 315
352 353 353 350 348 347 346 348 351 350 347 347 350 353 355 357 359 360 1 1 359 358 356 354 352 350 348 346 344 342 341 339 338 337 337 336 335 335 334 334 333 333 332 333 333 334 334 334 334 334 335 335 335 336 338 338 338 337 335 333 332 332 332 330 328 328 328 330 329 326 328 331 328 325 325 323 323 322 319 317 316 319 322 321 318 317 317 317
354 353 350 348 348 349 350 351 351 349 349 352 354 356 359 1 3 3 3 2 360 358 356 353 352 350 348 347 345 343 342 342 341 340 339 338 337 337 336 335 334 334 334 335 336 336 336 336 335 335 337 339 338 338 340 341 340 338 336 336 338 338 338 336 334 332 333 335 333 328 330 332 328 325 324 322 322 321 319 316 316 320 323 321 319 319 318 317
353 350 349 350 351 351 352 352 351 350 353 356 358 1 3 5 7 6 5 3 0 357 355 353 352 351 349 348 346 345 345 344 344 342 341 340 339 338 337 336 336 337 338 338 338 339 339 339 337 335 337 339 338 338 341 343 343 342 342 342 343 342 340 339 337 335 335 338 336 331 330 331 327 325 323 322 321 320 318 315 318 323 324 321 320 319 318 317
352 350 352 353 353 352 352 352 351 354 357 0 3 5 7 8 9 8 6 3 360 357 355 355 353 352 351 349 348 348 348 347 345 344 343 342 340 340 339 339 340 341 342 341 342 342 343 343 342 340 341 343 342 342 344 346 346 346 346 346 345 344 342 341 338 335 336 339 338 332 329 329 327 325 323 322 321 321 318 317 321 325 323 321 321 321 320 319
351 353 355 355 354 353 352 352 354 358 2 5 7 9 10 11 10 8 6 2 359 358 357 357 356 354 353 352 352 351 349 348 347 346 345 344 344 343 343 344 344 345 345 344 345 346 345 347 347 345 346 348 347 346 347 349 349 348 347 346 346 345 344 342 338 336 337 338 336 332 329 328 328 327 324 324 324 323 320 320 324 326 323 322 323 323 322 321
354 356 356 355 354 353 353 355 358 2 6 9 11 11 12 12 11 9 5 2 360 0 0 359 358 356 356 355 354 353 351 350 350 349 349 349 349 348 348 348 348 348 348 348 348 349 349 351 352 350 348 349 348 347 349 350 349 348 347 346 347 346 345 342 339 338 338 336 333 332 330 329 329 328 327 327 327 325 321 321 325 327 326 326 327 325 324 323
358 357 355 354 354 353 354 358 2 6 9 11 12 13 13 12 10 8 5 3 3 3 2 1 359 358 358 358 357 356 355 354 354 354 354 354 354 354 353 353 353 352 352 352 352 353 354 355 356 354 351 350 350 349 350 350 349 348 348 348 347 346 345 343 339 338 338 337 334 333 332 332 332 332 332 332 331 327 322 324 329 331 330 329 328 327 326 325
358 356 354 354 355 355 357 2 8 11 12 12 13 14 13 12 10 7 6 7 7 5 3 3 1 0 360 359 359 359 360 359 359 359 359 360 360 0 360 360 359 358 357 357 357 358 358 358 358 357 353 352 351 350 350 350 350 349 348 348 348 347 347 345 340 337 338 337 336 335 335 335 334 334 336 336 334 330 326 328 331 331 330 330 328 327 327 326
356 354 355 355 356 357 1 7 12 13 13 14 14 14 12 11 10 10 10 9 9 8 6 4 3 1 0 0 0 1 2 3 3 4 4 5 6 6 6 5 4 3 2 1 1 0 0 359 359 358 356 353 352 351 351 351 351 349 349 349 348 347 349 346 340 337 338 337 337 336 336 336 336 336 337 338 337 333 327 327 329 328 329 331 329 328 328 326
355 355 356 357 358 0 5 10 13 14 15 15 14 13 12 12 12 12 12 12 10 9 7 5 3 2 1 1 1 3 4 5 5 6 6 7 8 9 9 8 7 6 5 5 4 2 2 0 359 359 358 356 354 353 352 352 351 350 348 349 348 347 349 348 342 339 340 338 337 338 338 338 338 337 339 340 338 333 326 324 327 328 331 333 332 331 330 328
356 356 357 358 1 4 9 11 13 15 16 15 13 12 13 13 14 13 14 12 10 9 6 4 4 4 4 4 4 5 5 5 5 6 6 7 9 9 10 9 9 8 7 6 5 4 3 2 1 1 0 358 356 354 353 352 352 349 347 348 349 347 349 350 344 341 341 341 340 341 341 340 339 338 339 339 338 334 328 327 330 331 333 336 334 332 332 329